Radiation Dose at Monitoring Post of Fukushima Daini Nuclear Power Station
Date,Time,MP-1(microSv/h),MP-2(microSv/h),MP-3(microSv/h),MP-4(microSv/h),MP-5(microSv/h),MP-6(microSv/h),MP-7(microSv/h),Wind Direction,Wind Velocity(m/s),Rain
2017/05/06,00:00,0.384,0.231,0.402,0.370,0.332,0.194,0.167,southwest,1.6,No
2017/05/06,00:10,0.384,0.232,0.403,0.369,0.331,0.194,0.168,southwest,1.4,No
2017/05/06,00:20,0.386,0.231,0.401,0.371,0.334,0.195,0.167,southwest,1.6,No
2017/05/06,00:30,0.384,0.231,0.402,0.369,0.331,0.195,0.168,south,1.9,No
2017/05/06,00:40,0.385,0.231,0.401,0.374,0.331,0.194,0.167,south,2.4,No
2017/05/06,00:50,0.381,0.232,0.402,0.369,0.333,0.195,0.167,south,0.5,No
2017/05/06,01:00,0.386,0.233,0.401,0.371,0.330,0.194,0.168,west-northwest,1.5,No
2017/05/06,01:10,0.383,0.232,0.400,0.370,0.332,0.194,0.167,west,4.2,No
2017/05/06,01:20,0.385,0.231,0.401,0.372,0.331,0.193,0.167,west,5.9,No
2017/05/06,01:30,0.384,0.231,0.398,0.370,0.333,0.194,0.167,west,3.9,No
2017/05/06,01:40,0.383,0.231,0.402,0.370,0.329,0.194,0.167,west,2.9,No
2017/05/06,01:50,0.385,0.231,0.399,0.371,0.331,0.195,0.167,west-northwest,2.2,No
2017/05/06,02:00,0.383,0.231,0.399,0.369,0.329,0.194,0.167,west-northwest,1.0,No
2017/05/06,02:10,0.384,0.232,0.402,0.371,0.331,0.194,0.167,west-northwest,0.8,No
2017/05/06,02:20,0.382,0.232,0.400,0.368,0.331,0.194,0.167,south-southeast,1.4,No
2017/05/06,02:30,0.386,0.233,0.402,0.372,0.331,0.193,0.168,south,1.9,No
2017/05/06,02:40,0.383,0.233,0.401,0.369,0.331,0.194,0.168,south-southwest,2.5,No
2017/05/06,02:50,0.385,0.233,0.402,0.371,0.332,0.194,0.167,south-southwest,2.5,No
2017/05/06,03:00,0.385,0.233,0.402,0.369,0.332,0.194,0.167,southwest,3.3,No
2017/05/06,03:10,0.384,0.231,0.402,0.369,0.330,0.194,0.168,southwest,3.2,No
2017/05/06,03:20,0.384,0.232,0.402,0.370,0.332,0.194,0.169,south-southwest,2.2,No
2017/05/06,03:30,0.382,0.231,0.402,0.371,0.330,0.195,0.167,south-southwest,3.1,No
2017/05/06,03:40,0.386,0.232,0.402,0.372,0.332,0.194,0.168,south-southwest,2.5,No
2017/05/06,03:50,0.384,0.233,0.401,0.369,0.332,0.194,0.168,southwest,1.6,No
2017/05/06,04:00,0.384,0.232,0.400,0.373,0.331,0.195,0.168,southwest,1.1,No
2017/05/06,04:10,0.385,0.232,0.402,0.368,0.333,0.194,0.167,south,0.8,No
2017/05/06,04:20,0.385,0.234,0.400,0.371,0.329,0.194,0.169,southwest,1.2,No
2017/05/06,04:30,0.385,0.231,0.403,0.369,0.334,0.194,0.168,south-southwest,1.1,No
2017/05/06,04:40,0.383,0.231,0.401,0.371,0.330,0.194,0.167,south-southwest,1.6,No
2017/05/06,04:50,0.386,0.233,0.403,0.371,0.333,0.194,0.168,south-southwest,3.1,No
2017/05/06,05:00,0.382,0.233,0.402,0.370,0.332,0.196,0.168,south-southwest,4.2,No
2017/05/06,05:10,0.385,0.232,0.401,0.372,0.332,0.193,0.168,south-southwest,4.2,No
2017/05/06,05:20,0.386,0.232,0.403,0.369,0.332,0.195,0.168,south-southwest,3.8,No
2017/05/06,05:30,0.384,0.232,0.400,0.371,0.329,0.195,0.169,south-southwest,4.9,No
2017/05/06,05:40,0.386,0.231,0.402,0.371,0.331,0.196,0.168,south-southwest,5.8,No
2017/05/06,05:50,0.384,0.234,0.402,0.370,0.329,0.195,0.167,south-southwest,4.9,No
2017/05/06,06:00,0.386,0.232,0.401,0.369,0.333,0.195,0.168,south-southwest,3.9,No
2017/05/06,06:10,0.383,0.233,0.401,0.368,0.331,0.194,0.169,south-southwest,4.1,No
2017/05/06,06:20,0.385,0.232,0.400,0.372,0.331,0.195,0.169,south,4.4,No
2017/05/06,06:30,0.384,0.232,0.403,0.369,0.332,0.196,0.168,south,5.3,No
2017/05/06,06:40,0.385,0.232,0.400,0.372,0.331,0.194,0.168,south-southwest,6.6,No
2017/05/06,06:50,0.382,0.232,0.405,0.368,0.333,0.195,0.166,south-southwest,7.0,No
2017/05/06,07:00,0.388,0.233,0.400,0.371,0.330,0.194,0.169,south-southwest,7.5,No
2017/05/06,07:10,0.382,0.232,0.402,0.370,0.333,0.194,0.167,south-southwest,7.5,No
2017/05/06,07:20,0.385,0.232,0.401,0.367,0.329,0.195,0.167,south-southwest,9.5,No
2017/05/06,07:30,0.381,0.233,0.397,0.371,0.331,0.194,0.167,south-southwest,8.4,No
2017/05/06,07:40,0.383,0.230,0.400,0.367,0.329,0.194,0.167,south-southwest,9.1,No
2017/05/06,07:50,0.382,0.229,0.402,0.365,0.329,0.194,0.166,south-southwest,7.7,No
2017/05/06,08:00,0.378,0.231,0.397,0.369,0.333,0.194,0.167,south-southwest,8.8,No
2017/05/06,08:10,0.383,0.231,0.399,0.369,0.329,0.194,0.167,south,9.2,No
2017/05/06,08:20,0.383,0.229,0.400,0.366,0.328,0.194,0.165,south,11.0,No
2017/05/06,08:30,0.379,0.228,0.398,0.369,0.332,0.193,0.167,south,11.6,No
2017/05/06,08:40,0.382,0.231,0.401,0.370,0.330,0.194,0.167,south,12.0,No
2017/05/06,08:50,0.385,0.231,0.400,0.368,0.332,0.194,0.166,south,11.8,No
2017/05/06,09:00,0.381,0.229,0.398,0.373,0.334,0.194,0.167,south,11.0,No
2017/05/06,09:10,0.384,0.231,0.402,0.369,0.329,0.193,0.166,south,11.3,No
2017/05/06,09:20,0.384,0.230,0.398,0.368,0.332,0.193,0.168,south,12.1,No
2017/05/06,09:30,0.381,0.232,0.402,0.373,0.330,0.192,0.167,south,13.4,No
2017/05/06,09:40,0.385,0.232,0.400,0.367,0.332,0.195,0.168,south,12.6,No
2017/05/06,09:50,0.384,0.230,0.400,0.372,0.333,0.194,0.167,south,11.4,No
2017/05/06,10:00,0.382,0.231,0.402,0.368,0.328,0.194,0.167,south,10.8,No
2017/05/06,10:10,0.385,0.230,0.398,0.371,0.333,0.194,0.167,south,11.3,No
2017/05/06,10:20,0.381,0.231,0.401,0.369,0.329,0.193,0.168,south,11.8,No
2017/05/06,10:30,0.385,0.232,0.398,0.370,0.332,0.194,0.167,south,12.1,No
2017/05/06,10:40,0.384,0.232,0.403,0.371,0.329,0.193,0.168,south,12.2,No
2017/05/06,10:50,0.382,0.232,0.401,0.369,0.332,0.194,0.167,south,11.8,No
2017/05/06,11:00,0.385,0.230,0.399,0.371,0.333,0.194,0.167,south,11.4,No
2017/05/06,11:10,0.380,0.231,0.403,0.368,0.330,0.194,0.167,south,12.8,No
2017/05/06,11:20,0.384,0.231,0.399,0.373,0.331,0.193,0.166,south,13.3,No
2017/05/06,11:30,0.384,0.231,0.402,0.369,0.327,0.193,0.168,south,12.7,No
2017/05/06,11:40,0.380,0.230,0.400,0.369,0.330,0.194,0.167,south,11.7,No
2017/05/06,11:50,0.384,0.231,0.398,0.373,0.331,0.193,0.167,south,12.1,No
2017/05/06,12:00,0.383,0.232,0.402,0.369,0.327,0.194,0.167,south,13.9,No
2017/05/06,12:10,0.381,0.231,0.400,0.369,0.330,0.193,0.166,south,15.2,No
2017/05/06,12:20,0.386,0.231,0.399,0.371,0.331,0.193,0.167,south,13.4,No
2017/05/06,12:30,0.383,0.232,0.402,0.369,0.328,0.194,0.167,south,13.6,No
2017/05/06,12:40,0.383,0.230,0.399,0.372,0.334,0.193,0.167,south,13.0,No
2017/05/06,12:50,0.386,0.232,0.402,0.370,0.330,0.194,0.168,south,11.8,Yes
2017/05/06,13:00,0.381,0.230,0.402,0.370,0.331,0.194,0.168,south,11.5,Yes
2017/05/06,13:10,0.385,0.232,0.400,0.372,0.332,0.194,0.168,south-southwest,8.4,Yes
2017/05/06,13:20,0.384,0.231,0.403,0.369,0.330,0.194,0.168,south-southwest,6.7,Yes
2017/05/06,13:30,0.386,0.232,0.399,0.372,0.333,0.192,0.168,southwest,3.1,No
2017/05/06,13:40,0.385,0.232,0.404,0.371,0.330,0.195,0.167,southwest,2.2,No
2017/05/06,13:50,0.380,0.230,0.402,0.368,0.327,0.194,0.168,north-northwest,1.7,No
2017/05/06,14:00,0.384,0.231,0.398,0.370,0.330,0.194,0.167,north-northeast,1.7,No
2017/05/06,14:10,0.385,0.233,0.401,0.369,0.331,0.194,0.167,northeast,2.2,No
2017/05/06,14:20,0.382,0.231,0.403,0.368,0.329,0.194,0.168,north-northeast,3.1,No
2017/05/06,14:30,0.383,0.230,0.400,0.371,0.327,0.193,0.168,north-northeast,2.9,No
2017/05/06,14:40,0.385,0.232,0.397,0.371,0.331,0.194,0.167,north-northeast,2.6,No
2017/05/06,14:50,0.382,0.232,0.404,0.368,0.332,0.194,0.168,north,3.3,No
2017/05/06,15:00,0.383,0.231,0.401,0.372,0.330,0.193,0.167,north,2.7,No
2017/05/06,15:10,0.385,0.233,0.399,0.370,0.328,0.194,0.166,north-northeast,3.3,No
2017/05/06,15:20,0.383,0.233,0.399,0.369,0.328,0.195,0.169,north-northeast,2.9,No
2017/05/06,15:30,0.385,0.231,0.403,0.372,0.334,0.194,0.168,north-northeast,2.6,No
2017/05/06,15:40,0.385,0.232,0.401,0.370,0.332,0.194,0.168,north-northeast,4.2,No
2017/05/06,15:50,0.382,0.232,0.402,0.370,0.331,0.194,0.168,north-northeast,4.2,No
2017/05/06,16:00,0.386,0.231,0.402,0.373,0.334,0.194,0.168,north-northeast,4.3,No
2017/05/06,16:10,0.382,0.232,0.399,0.369,0.330,0.193,0.168,north-northeast,4.5,No
2017/05/06,16:20,0.384,0.232,0.404,0.370,0.333,0.195,0.167,north,5.3,Yes
2017/05/06,16:30,0.384,0.231,0.400,0.371,0.332,0.194,0.169,north,4.1,No
2017/05/06,16:40,0.385,0.232,0.403,0.370,0.331,0.194,0.168,north,4.5,No
2017/05/06,16:50,0.385,0.232,0.400,0.372,0.334,0.194,0.168,north,5.6,No
2017/05/06,17:00,0.383,0.231,0.403,0.369,0.331,0.194,0.168,north,5.7,No
2017/05/06,17:10,0.386,0.232,0.401,0.373,0.335,0.194,0.168,north,6.8,Yes
2017/05/06,17:20,0.385,0.231,0.402,0.370,0.332,0.193,0.168,north,7.0,Yes
2017/05/06,17:30,0.387,0.232,0.402,0.374,0.333,0.195,0.168,north,6.7,No
2017/05/06,17:40,0.383,0.234,0.401,0.370,0.332,0.194,0.169,north,5.6,No
2017/05/06,17:50,0.386,0.232,0.404,0.372,0.332,0.194,0.168,north-northwest,4.7,No
2017/05/06,18:00,0.384,0.233,0.402,0.372,0.334,0.194,0.168,north-northwest,1.9,No
2017/05/06,18:10,0.386,0.231,0.405,0.373,0.330,0.195,0.167,north,4.3,No
2017/05/06,18:20,0.383,0.233,0.400,0.373,0.333,0.194,0.170,north,4.1,No
2017/05/06,18:30,0.387,0.233,0.405,0.372,0.330,0.194,0.168,north,4.8,No
2017/05/06,18:40,0.383,0.233,0.399,0.374,0.333,0.194,0.169,north,4.9,No
2017/05/06,18:50,0.387,0.233,0.404,0.369,0.333,0.194,0.167,north,4.5,No
2017/05/06,19:00,0.384,0.232,0.401,0.373,0.331,0.194,0.168,north,3.9,No
2017/05/06,19:10,0.386,0.231,0.403,0.370,0.332,0.194,0.167,north,3.0,No
2017/05/06,19:20,0.384,0.233,0.401,0.373,0.333,0.194,0.169,north,2.8,No
2017/05/06,19:30,0.386,0.233,0.405,0.370,0.332,0.194,0.168,north,2.8,No
2017/05/06,19:40,0.384,0.231,0.401,0.373,0.332,0.194,0.169,north,2.5,No
2017/05/06,19:50,0.384,0.233,0.404,0.370,0.332,0.195,0.167,north-northeast,1.4,No
2017/05/06,20:00,0.384,0.232,0.402,0.374,0.331,0.194,0.167,north,1.9,No
2017/05/06,20:10,0.385,0.233,0.405,0.370,0.332,0.195,0.168,north,2.3,No
2017/05/06,20:20,0.387,0.233,0.401,0.373,0.332,0.194,0.168,north,2.8,No
2017/05/06,20:30,0.383,0.232,0.404,0.369,0.332,0.194,0.167,north,1.8,No
2017/05/06,20:40,0.385,0.232,0.402,0.372,0.330,0.194,0.168,northeast,1.1,No
2017/05/06,20:50,0.383,0.233,0.402,0.369,0.333,0.194,0.167,northeast,1.0,No
2017/05/06,21:00,0.385,0.231,0.401,0.373,0.330,0.194,0.167,southeast,0.5,No
2017/05/06,21:10,0.384,0.232,0.404,0.371,0.333,0.196,0.168,southeast,1.4,No
2017/05/06,21:20,0.386,0.232,0.400,0.371,0.330,0.194,0.169,east-southeast,1.4,No
2017/05/06,21:30,0.383,0.232,0.401,0.369,0.333,0.195,0.168,southeast,1.7,No
2017/05/06,21:40,0.386,0.232,0.403,0.371,0.330,0.194,0.167,east,1.6,No
2017/05/06,21:50,0.382,0.231,0.401,0.371,0.333,0.194,0.168,east-northeast,1.1,No
2017/05/06,22:00,0.386,0.232,0.403,0.372,0.329,0.194,0.168,east-northeast,1.4,No
2017/05/06,22:10,0.384,0.231,0.400,0.371,0.333,0.195,0.169,east-northeast,0.8,No
2017/05/06,22:20,0.385,0.233,0.402,0.372,0.330,0.194,0.168,southeast,1.8,No
2017/05/06,22:30,0.383,0.231,0.402,0.372,0.332,0.194,0.168,southeast,2.5,No
2017/05/06,22:40,0.386,0.232,0.401,0.371,0.331,0.194,0.167,east,1.3,No
2017/05/06,22:50,0.385,0.232,0.403,0.372,0.334,0.195,0.168,south-southeast,1.0,No
2017/05/06,23:00,0.387,0.233,0.402,0.371,0.330,0.194,0.168,southeast,0.8,No
2017/05/06,23:10,0.384,0.233,0.403,0.371,0.333,0.194,0.168,south-southeast,1.5,No
2017/05/06,23:20,0.386,0.232,0.402,0.372,0.331,0.194,0.169,southeast,1.0,No
2017/05/06,23:30,0.382,0.232,0.402,0.370,0.331,0.195,0.168,east-southeast,0.7,No
2017/05/06,23:40,0.387,0.231,0.401,0.374,0.332,0.194,0.168,-,CALM,No
2017/05/06,23:50,0.384,0.232,0.403,0.372,0.332,0.194,0.168,north,2.6,No
